| time (UTC) | temp F | wind direction | speed MPH | gust MPH | rain 1hr in | rain 24hr in | rain mn in | humidity % | barometer mb |
| 20260507040835 | 59 | 76 | 2.0 | 4.0 | 0.00 | 0.13 | 0.00 | 84 | 1011.9 |
| 20260507035936 | 59 | 79 | 1.0 | 3.0 | 0.00 | 0.14 | 0.00 | 84 | 1012.0 |
| 20260507035357 | 59 | 66 | 3.0 | 5.0 | 0.00 | 0.15 | 0.00 | 84 | 1011.9 |
| 20260507034435 | 59 | 41 | 0.0 | 1.0 | 0.00 | 0.16 | 0.00 | 83 | 1012.0 |
| 20260507033535 | 59 | 23 | 5.0 | 9.0 | 0.00 | 0.16 | 0.00 | 83 | 1012.0 |
| 20260507032656 | 59 | 106 | 2.0 | 5.0 | 0.00 | 0.16 | 0.00 | 83 | 1011.9 |
| 20260507031735 | 59 | 84 | 3.0 | 6.0 | 0.00 | 0.16 | 0.00 | 83 | 1011.9 |
| 20260507030835 | 59 | 48 | 1.0 | 2.0 | 0.00 | 0.16 | 0.00 | 83 | 1012.0 |
| 20260507025934 | 59 | 93 | 2.0 | 4.0 | 0.00 | 0.16 | 0.00 | 83 | 1011.9 |
| 20260507025334 | 59 | 69 | 2.0 | 5.0 | 0.00 | 0.16 | 0.00 | 83 | 1011.9 |
| 20260507024435 | 59 | 140 | 2.0 | 3.0 | 0.00 | 0.17 | 0.00 | 83 | 1011.8 |
| 20260507023535 | 59 | 92 | 2.0 | 4.0 | 0.00 | 0.17 | 0.00 | 83 | 1011.9 |
| 20260507022634 | 59 | 151 | 3.0 | 4.0 | 0.00 | 0.17 | 0.00 | 83 | 1011.8 |
| 20260507021735 | 59 | 78 | 3.0 | 6.0 | 0.00 | 0.19 | 0.00 | 83 | 1011.8 |
| 20260507020842 | 59 | 110 | 2.0 | 3.0 | 0.00 | 0.21 | 0.00 | 83 | 1011.8 |
| 20260507015935 | 59 | 102 | 3.0 | 5.0 | 0.00 | 0.23 | 0.00 | 83 | 1011.8 |
| 20260507015356 | 59 | 80 | 0.0 | 1.0 | 0.00 | 0.25 | 0.00 | 83 | 1011.8 |
| 20260507014455 | 59 | 74 | 1.0 | 3.0 | 0.00 | 0.29 | 0.00 | 83 | 1011.7 |
| 20260507013535 | 59 | 118 | 1.0 | 3.0 | 0.00 | 0.33 | 0.00 | 83 | 1011.7 |
| 20260507012635 | 59 | 102 | 1.0 | 3.0 | 0.00 | 0.39 | 0.00 | 83 | 1011.8 |
| 20260507011735 | 60 | 54 | 1.0 | 3.0 | 0.00 | 0.44 | 0.00 | 83 | 1011.9 |
| 20260507010834 | 60 | 32 | 1.0 | 2.0 | 0.00 | 0.57 | 0.00 | 83 | 1011.9 |
| 20260507005934 | 59 | 297 | 3.0 | 6.0 | 0.00 | 0.57 | 0.00 | 83 | 1011.9 |
| 20260507005335 | 59 | 4 | 1.0 | 2.0 | 0.00 | 0.58 | 0.00 | 83 | 1012.0 |
| 20260507004435 | 60 | 316 | 2.0 | 4.0 | 0.00 | 0.59 | 0.00 | 84 | 1012.0 |
| 20260507003535 | 60 | 49 | 2.0 | 4.0 | 0.00 | 0.60 | 0.00 | 83 | 1011.9 |
| 20260507002635 | 59 | 115 | 2.0 | 4.0 | 0.00 | 0.60 | 0.00 | 83 | 1011.9 |
| 20260507001756 | 59 | 78 | 4.0 | 7.0 | 0.00 | 0.61 | 0.00 | 83 | 1011.9 |
| 20260507000856 | 60 | 14 | 0.0 | 3.0 | 0.00 | 0.61 | 0.00 | 83 | 1011.7 |
| 20260506235934 | 60 | 18 | 5.0 | 8.0 | 0.00 | 0.61 | 0.00 | 83 | 1011.7 |
| 20260506235334 | 60 | 1 | 3.0 | 4.0 | 0.00 | 0.61 | 0.00 | 83 | 1011.9 |
| 20260506234457 | 60 | 345 | 2.0 | 4.0 | 0.00 | 0.61 | 0.00 | 82 | 1011.9 |
| 20260506233556 | 60 | 27 | 1.0 | 3.0 | 0.00 | 0.61 | 0.00 | 82 | 1012.0 |
| 20260506232635 | 60 | 48 | 3.0 | 6.0 | 0.00 | 0.61 | 0.00 | 81 | 1012.0 |
| 20260506231756 | 60 | 46 | 3.0 | 5.0 | 0.00 | 0.61 | 0.00 | 81 | 1011.9 |
| 20260506230857 | 60 | 33 | 3.0 | 3.0 | 0.00 | 0.61 | 0.00 | 81 | 1012.0 |
| 20260506225936 | 60 | 86 | 0.0 | 2.0 | 0.00 | 0.61 | 0.00 | 81 | 1012.0 |
| 20260506225355 | 60 | 46 | 2.0 | 7.0 | 0.00 | 0.61 | 0.00 | 81 | 1012.0 |
| 20260506224434 | 60 | 327 | 0.0 | 2.0 | 0.00 | 0.61 | 0.00 | 82 | 1012.0 |
| 20260506223556 | 60 | 45 | 2.0 | 3.0 | 0.00 | 0.61 | 0.00 | 82 | 1012.0 |
| 20260506222656 | 60 | 9 | 3.0 | 7.0 | 0.00 | 0.61 | 0.00 | 82 | 1012.0 |
| 20260506221735 | 60 | 179 | 2.0 | 5.0 | 0.00 | 0.65 | 0.00 | 82 | 1012.0 |
| 20260506220834 | 60 | 100 | 3.0 | 5.0 | 0.00 | 0.72 | 0.00 | 82 | 1012.0 |
| 20260506215956 | 60 | 218 | 0.0 | 1.0 | 0.00 | 0.72 | 0.00 | 82 | 1012.0 |
| 20260506215335 | 60 | 44 | 2.0 | 7.0 | 0.00 | 0.72 | 0.72 | 83 | 1012.0 |
| 20260506214435 | 60 | 323 | 1.0 | 2.0 | 0.00 | 0.72 | 0.72 | 83 | 1012.0 |
| 20260506213535 | 60 | 357 | 1.0 | 2.0 | 0.00 | 0.72 | 0.72 | 82 | 1012.0 |
| 20260506212650 | 60 | 2 | 0.0 | 2.0 | 0.00 | 0.72 | 0.72 | 82 | 1012.0 |
| 20260506211734 | 60 | 14 | 5.0 | 9.0 | 0.00 | 0.72 | 0.72 | 84 | 1012.0 |
| 20260506210834 | 60 | 83 | 1.0 | 4.0 | 0.00 | 0.72 | 0.72 | 83 | 1011.9 |
| 20260506205934 | 60 | 20 | 1.0 | 3.0 | 0.00 | 0.72 | 0.72 | 83 | 1011.9 |
| 20260506205334 | 60 | 98 | 4.0 | 6.0 | 0.00 | 0.72 | 0.72 | 83 | 1012.0 |
| 20260506204435 | 60 | 84 | 2.0 | 4.0 | 0.00 | 0.72 | 0.72 | 83 | 1011.9 |
| 20260506203535 | 60 | 87 | 1.0 | 3.0 | 0.00 | 0.72 | 0.72 | 82 | 1011.8 |
| 20260506202635 | 60 | 334 | 2.0 | 3.0 | 0.00 | 0.72 | 0.72 | 83 | 1011.7 |
| 20260506201735 | 60 | 336 | 1.0 | 3.0 | 0.00 | 0.72 | 0.72 | 82 | 1011.8 |
| 20260506200835 | 60 | 127 | 0.0 | 1.0 | 0.00 | 0.72 | 0.72 | 82 | 1011.6 |
| 20260506195935 | 60 | 75 | 3.0 | 5.0 | 0.00 | 0.72 | 0.72 | 82 | 1011.5 |
| 20260506195350 | 60 | 131 | 4.0 | 6.0 | 0.00 | 0.72 | 0.72 | 82 | 1011.5 |
| 20260506194435 | 60 | 67 | 0.0 | 2.0 | 0.00 | 0.72 | 0.72 | 82 | 1011.3 |
| 20260506193542 | 60 | 170 | 4.0 | 7.0 | 0.00 | 0.72 | 0.72 | 83 | 1011.3 |
| 20260506192717 | 60 | 144 | 2.0 | 5.0 | 0.00 | 0.72 | 0.72 | 83 | 1011.2 |
| 20260506191757 | 60 | 44 | 1.0 | 3.0 | 0.00 | 0.72 | 0.72 | 83 | 1011.1 |
| 20260506190836 | 60 | 107 | 0.0 | 1.0 | 0.00 | 0.72 | 0.72 | 83 | 1010.9 |
| 20260506185935 | 60 | 61 | 1.0 | 3.0 | 0.00 | 0.72 | 0.72 | 84 | 1010.8 |
| 20260506185335 | 60 | 266 | 2.0 | 4.0 | 0.00 | 0.72 | 0.72 | 84 | 1010.7 |
| 20260506184436 | 60 | 5 | 2.0 | 5.0 | 0.00 | 0.72 | 0.72 | 84 | 1010.7 |
| 20260506183535 | 60 | 16 | 2.0 | 4.0 | 0.00 | 0.72 | 0.72 | 85 | 1010.5 |
| 20260506182637 | 60 | 297 | 1.0 | 2.0 | 0.00 | 0.72 | 0.72 | 86 | 1010.5 |
| 20260506181735 | 60 | 22 | 3.0 | 6.0 | 0.00 | 0.72 | 0.72 | 85 | 1010.3 |
| 20260506180834 | 60 | 160 | 2.0 | 5.0 | 0.00 | 0.72 | 0.72 | 85 | 1010.2 |
| 20260506175935 | 60 | 48 | 5.0 | 9.0 | 0.00 | 0.72 | 0.72 | 85 | 1010.0 |
| 20260506175335 | 60 | 110 | 5.0 | 8.0 | 0.00 | 0.72 | 0.72 | 85 | 1010.0 |
| 20260506174435 | 61 | 348 | 3.0 | 7.0 | 0.00 | 0.72 | 0.72 | 85 | 1010.0 |
| 20260506173534 | 61 | 41 | 3.0 | 5.0 | 0.00 | 0.72 | 0.72 | 84 | 1009.9 |
| 20260506172635 | 61 | 315 | 4.0 | 6.0 | 0.00 | 0.72 | 0.72 | 83 | 1009.8 |
| 20260506171734 | 61 | 16 | 7.0 | 9.0 | 0.00 | 0.72 | 0.72 | 83 | 1009.8 |
| 20260506170834 | 62 | 29 | 4.0 | 8.0 | 0.00 | 0.72 | 0.72 | 82 | 1009.8 |
| 20260506165956 | 62 | 352 | 1.0 | 3.0 | 0.00 | 0.72 | 0.72 | 82 | 1009.7 |
| 20260506165335 | 63 | 87 | 1.0 | 2.0 | 0.00 | 0.72 | 0.72 | 81 | 1009.6 |
| 20260506164435 | 63 | 257 | 1.0 | 3.0 | 0.00 | 0.72 | 0.72 | 82 | 1009.7 |
| 20260506163535 | 62 | 347 | 2.0 | 4.0 | 0.00 | 0.72 | 0.72 | 83 | 1009.8 |
| 20260506162634 | 62 | 24 | 0.0 | 1.0 | 0.00 | 0.72 | 0.72 | 82 | 1009.8 |
| 20260506161735 | 63 | 60 | 4.0 | 7.0 | 0.00 | 0.72 | 0.72 | 82 | 1009.7 |
| 20260506160835 | 63 | 338 | 3.0 | 6.0 | 0.00 | 0.72 | 0.72 | 83 | 1009.7 |
| 20260506155934 | 63 | 354 | 1.0 | 3.0 | 0.00 | 0.72 | 0.72 | 82 | 1009.7 |
| 20260506155334 | 63 | 34 | 1.0 | 4.0 | 0.00 | 0.72 | 0.72 | 82 | 1009.6 |
| 20260506154435 | 64 | 270 | 1.0 | 2.0 | 0.00 | 0.72 | 0.72 | 81 | 1009.7 |
| 20260506153549 | 64 | 191 | 4.0 | 7.0 | 0.00 | 0.72 | 0.72 | 81 | 1009.7 |
| 20260506152635 | 65 | 169 | 5.0 | 7.0 | 0.00 | 0.72 | 0.72 | 80 | 1009.6 |
| 20260506151734 | 66 | 234 | 3.0 | 7.0 | 0.00 | 0.72 | 0.72 | 80 | 1009.6 |
| 20260506150834 | 65 | 225 | 5.0 | 9.0 | 0.00 | 0.72 | 0.72 | 81 | 1009.6 |
| 20260506145936 | 66 | 254 | 2.0 | 5.0 | 0.00 | 0.72 | 0.72 | 79 | 1009.6 |
| 20260506145335 | 66 | 245 | 6.0 | 9.0 | 0.00 | 0.72 | 0.72 | 79 | 1009.4 |
| 20260506144456 | 66 | 24 | 3.0 | 7.0 | 0.00 | 0.72 | 0.72 | 80 | 1009.5 |
| 20260506143534 | 64 | 150 | 2.0 | 5.0 | 0.00 | 0.72 | 0.72 | 82 | 1009.5 |
| 20260506142634 | 64 | 52 | 3.0 | 8.0 | 0.00 | 0.72 | 0.72 | 80 | 1009.5 |
| 20260506141737 | 65 | 224 | 3.0 | 6.0 | 0.00 | 0.72 | 0.72 | 79 | 1009.6 |
| 20260506140838 | 65 | 214 | 5.0 | 7.0 | 0.00 | 0.72 | 0.72 | 82 | 1009.6 |
| 20260506135935 | 66 | 349 | 1.0 | 5.0 | 0.00 | 0.72 | 0.72 | 80 | 1009.7 |
| 20260506135336 | 66 | 171 | 6.0 | 12.0 | 0.00 | 0.72 | 0.72 | 79 | 1009.7 |
| 20260506134435 | 66 | 296 | 2.0 | 3.0 | 0.00 | 0.72 | 0.72 | 78 | 1009.8 |
| 20260506133534 | 66 | 235 | 6.0 | 12.0 | 0.00 | 0.72 | 0.72 | 80 | 1009.8 |
| 20260506132634 | 65 | 214 | 5.0 | 12.0 | 0.00 | 0.72 | 0.72 | 80 | 1009.8 |
| 20260506131755 | 66 | 198 | 5.0 | 10.0 | 0.00 | 0.72 | 0.72 | 81 | 1009.9 |
| 20260506130834 | 65 | 238 | 6.0 | 9.0 | 0.00 | 0.72 | 0.72 | 83 | 1009.7 |
| 20260506125935 | 65 | 208 | 3.0 | 6.0 | 0.00 | 0.72 | 0.72 | 82 | 1009.8 |
| 20260506125335 | 64 | 246 | 2.0 | 4.0 | 0.00 | 0.72 | 0.72 | 83 | 1009.8 |
| 20260506124434 | 65 | 176 | 4.0 | 7.0 | 0.00 | 0.72 | 0.72 | 85 | 1009.8 |
| 20260506123534 | 64 | 249 | 5.0 | 9.0 | 0.00 | 0.72 | 0.72 | 85 | 1009.6 |
| 20260506122655 | 64 | 228 | 5.0 | 8.0 | 0.00 | 0.72 | 0.72 | 86 | 1009.5 |
| 20260506121734 | 64 | 231 | 4.0 | 8.0 | 0.00 | 0.72 | 0.72 | 85 | 1009.5 |
| 20260506120835 | 64 | 218 | 2.0 | 4.0 | 0.00 | 0.72 | 0.72 | 87 | 1009.4 |
| 20260506115934 | 63 | 254 | 3.0 | 4.0 | 0.00 | 0.72 | 0.72 | 87 | 1009.4 |
| 20260506115335 | 63 | 265 | 1.0 | 2.0 | 0.00 | 0.72 | 0.72 | 87 | 1009.4 |